Agadir Al Massira, Morocco

1:41 PM WET on January 20, 2018 (GMT +0000)
Agadir Al Massira

Weather History for GMAD - December, 2012

Change the Weather History Date:

Friday, December 14, 2012

  Actual Average Record
Temperature  
Mean Temperature 57 °F -  
Max Temperature 72 °F - - ()
Min Temperature 42 °F - - ()
Degree Days  
Heating Degree Days 8    
Growing Degree Days 7 (Base 50)    
Moisture  
Dew Point 46 °F    
Average Humidity 70    
Maximum Humidity 88    
Minimum Humidity 32    
Precipitation  
Precipitation 0.00 in - - ()
Sea Level Pressure  
Sea Level Pressure 30.16 in    
Wind  
Wind Speed 6 mph ()    
Max Wind Speed 14 mph    
Max Gust Speed -    
Visibility 5.8 miles    
Events      
T = Trace of Precipitation, MM = Missing Value Source: Averaged Metar Reports

Daily Weather History Graph

Daily Weather History Graph

Search for Another Location

Airport or City:

Trip Planner

Search our weather history database for the weather conditions in past years. The results will help you decide how hot, cold, wet, or windy it might be!

Date:

Astronomy

Dec. 14, 2012 Rise Set
Actual Time 7:26 AM WET 5:38 PM WET
Civil Twilight 6:59 AM WET 6:05 PM WET
Nautical Twilight 6:29 AM WET 6:35 PM WET
Astronomical Twilight 6:00 AM WET 7:04 PM WET
Moon 8:22 AM WET (12/14) 7:11 PM WET (12/14)
Length of Visible Light 11h 05m
Length of Day
10h 12m
New Moon, 2% of the Moon is Illuminated
Dec 14
New Moon
Dec 20
First Quarter
Dec 28
Full
Jan 5
Last Quarter
Jan 11
New

Hourly Weather History & Observations

Time (WET) Temp. Windchill Dew Point Humidity Pressure Visibility Wind Dir Wind Speed Gust Speed Precip Events Conditions
12:00 AM 51 °F - 48 °F 87% 30.11 in 4 mi ENE 6.9 mph - -   Partly Cloudy
1:00 AM 53.6 °F - 50.0 °F 88% 30.09 in - East 5.8 mph - N/A   Clear
2:00 AM 50.0 °F - 46.4 °F 87% 30.12 in - East 5.8 mph - N/A   Clear
3:00 AM 50 °F - 46 °F 83% 30.14 in 6 mi ESE 6.9 mph - -  
4:00 AM 48.2 °F - 44.6 °F 87% 30.12 in - East 4.6 mph - N/A   Clear
5:00 AM 46.4 °F 43.5 °F 42.8 °F 87% 30.12 in - NE 5.8 mph - N/A   Clear
6:00 AM 45 °F - 42 °F 83% 30.14 in 6 mi NE 6.9 mph - -  
6:00 AM 44.6 °F 40.7 °F 41.0 °F 87% 30.12 in - NE 6.9 mph - N/A   Clear
8:00 AM 42.8 °F 39.3 °F 39.2 °F 87% 30.15 in - East 5.8 mph - N/A   Clear
9:00 AM 51 °F - 42 °F 63% 30.18 in 6 mi ENE 5.8 mph - -  
9:00 AM 50.0 °F - 42.8 °F 76% 30.15 in - ENE 5.8 mph - N/A   Clear
10:00 AM 57.2 °F - 44.6 °F 63% 30.18 in 6.2 mi East 6.9 mph - N/A   Unknown
11:00 AM 62.6 °F - 42.8 °F 48% 30.18 in - East 6.9 mph - N/A   Clear
12:00 PM 66 °F - 43 °F 32% 30.17 in 6 mi East 5.8 mph - -   Clear
12:00 PM 66.2 °F - 42.8 °F 43% 30.15 in - East 5.8 mph - N/A   Clear
1:00 PM 69.8 °F - 42.8 °F 38% 30.15 in - East 5.8 mph - N/A   Clear
2:00 PM 71.6 °F - 41.0 °F 33% 30.12 in - WNW 5.8 mph - N/A   Clear
3:00 PM 69 °F - 46 °F 32% 30.15 in 6 mi West 13.8 mph - -   Clear
3:00 PM 68.0 °F - 46.4 °F 46% 30.15 in - West 13.8 mph - N/A   Clear
4:00 PM 66.2 °F - 48.2 °F 52% 30.15 in 6.2 mi West 12.7 mph - N/A   Unknown
5:00 PM 62.6 °F - 51.8 °F 68% 30.15 in - West 11.5 mph - N/A   Clear
6:00 PM 60 °F - 52 °F 67% 30.19 in 6 mi SSW 4.6 mph - -   Clear
6:00 PM 60.8 °F - 51.8 °F 72% 30.18 in - SSW 4.6 mph - N/A   Clear
7:00 PM 57.2 °F - 53.6 °F 88% 30.18 in - SW 4.6 mph - N/A   Clear
8:00 PM 55.4 °F - 51.8 °F 88% 30.21 in - SSE 3.5 mph - N/A   Clear
9:00 PM 53 °F - 50 °F 87% 30.24 in 6 mi SE 4.6 mph - -   Clear
9:00 PM 53.6 °F - 50.0 °F 88% 30.21 in - SE 4.6 mph - N/A   Clear
10:00 PM 51.8 °F - 48.2 °F 88% 30.24 in - SE 6.9 mph - N/A   Unknown
11:00 PM 50.0 °F - 46.4 °F 87% 30.24 in - ENE 3.5 mph - N/A   Clear